Weather History for KVRB - June, 2012

Change the Weather History Date:

Sunday, June 3, 2012

  Actual Average Record
Temperature  
Mean Temperature 78 °F 79 °F  
Max Temperature 87 °F 87 °F 96 °F (1945)
Min Temperature 69 °F 71 °F 60 °F (1965)
Degree Days  
Heating Degree Days 0 0  
Month to date heating degree days 0 0  
Since 1 June heating degree days 0 0  
Since 1 July heating degree days 230 456  
Cooling Degree Days 13 14  
Month to date cooling degree days 44 42  
Year to date cooling degree days 1083 848  
Since 1 June cooling degree days 44 42  
Growing Degree Days 28 (Base 50)    
Moisture  
Dew Point 66 °F    
Average Humidity 69    
Maximum Humidity 97    
Minimum Humidity 40    
Precipitation  
Precipitation 0.00 in 0.20 in 2.15 in (2010)
Month to date precipitation 1.43 0.58  
Year to date precipitation 16.14 15.95  
Sea Level Pressure  
Sea Level Pressure 30.00 in    
Wind  
Wind Speed 7 mph (NNW)    
Max Wind Speed 15 mph    
Max Gust Speed 20 mph    
Visibility 10 miles    
Events      
T = Trace of Precipitation, MM = Missing Value Source: NWS Daily Summary

Daily Weather History Graph

Daily Weather History Graph

Search for Another Location

Airport or City:

Trip Planner

Search our weather history database for the weather conditions in past years. The results will help you decide how hot, cold, wet, or windy it might be!

Date:

Astronomy

Jun. 03, 2012 Rise Set
Actual Time 6:25 AM EDT 8:14 PM EDT
Civil Twilight 5:59 AM EDT 8:40 PM EDT
Nautical Twilight 5:27 AM EDT 9:12 PM EDT
Astronomical Twilight 4:54 AM EDT 9:45 PM EDT
Moon 7:39 PM EDT (6/3) 5:30 AM EDT (6/3)
Length of Visible Light 14h 41m
Length of Day
13h 48m
Waxing Gibbous, 99% of the Moon is Illuminated
Jun 3
Waxing Gibbous
Jun 4
Full
Jun 11
Last Quarter
Jun 19
New
Jun 26
First Quarter

Hourly Weather History & Observations

Time (EDT) Temp. Heat Index Dew Point Humidity Pressure Visibility Wind Dir Wind Speed Gust Speed Precip Events Conditions
12:53 AM 75.9 °F - 70.0 °F 82% 29.97 in 10.0 mi WSW 6.9 mph - N/A   Clear
1:53 AM 75.0 °F - 70.0 °F 84% 29.96 in 10.0 mi West 8.1 mph - N/A   Clear
2:53 AM 73.0 °F - 70.0 °F 90% 29.95 in 10.0 mi West 9.2 mph - N/A   Clear
3:53 AM 72.0 °F - 69.1 °F 91% 29.95 in 10.0 mi West 5.8 mph - N/A   Clear
4:53 AM 71.1 °F - 69.1 °F 93% 29.95 in 9.0 mi WNW 5.8 mph - N/A   Clear
5:53 AM 70.0 °F - 68.0 °F 93% 29.97 in 9.0 mi West 4.6 mph - N/A   Clear
6:53 AM 70.0 °F - 68.0 °F 93% 30.00 in 7.0 mi WSW 4.6 mph - N/A   Clear
7:53 AM 73.9 °F - 69.1 °F 85% 30.01 in 10.0 mi West 5.8 mph - N/A   Clear
8:53 AM 78.1 °F - 68.0 °F 71% 30.03 in 10.0 mi WNW 9.2 mph - N/A   Clear
9:53 AM 82.0 °F 83.1 °F 63.0 °F 52% 30.04 in 10.0 mi NW 6.9 mph - N/A   Clear
10:53 AM 84.9 °F 85.0 °F 61.0 °F 44% 30.05 in 10.0 mi NW 6.9 mph - N/A   Clear
11:53 AM 87.1 °F 87.0 °F 61.0 °F 41% 30.06 in 10.0 mi NNW 6.9 mph - N/A   Clear
12:53 PM 86.0 °F 85.7 °F 60.1 °F 41% 30.05 in 10.0 mi NNE 10.4 mph 17.3 mph N/A   Clear
1:53 PM 84.9 °F 85.0 °F 61.0 °F 44% 30.03 in 10.0 mi NE 11.5 mph - N/A   Clear
2:53 PM 84.9 °F 85.0 °F 61.0 °F 44% 30.02 in 10.0 mi NE 11.5 mph - N/A   Clear
3:53 PM 84.9 °F 85.0 °F 61.0 °F 44% 30.01 in 10.0 mi NNE 9.2 mph - N/A   Clear
4:53 PM 84.0 °F 84.4 °F 61.0 °F 46% 30.01 in 10.0 mi NE 11.5 mph - N/A   Clear
5:53 PM 82.9 °F 84.4 °F 64.0 °F 53% 30.00 in 10.0 mi ENE 9.2 mph - N/A   Clear
6:53 PM 82.0 °F 84.1 °F 66.0 °F 58% 29.99 in 10.0 mi ENE 9.2 mph - N/A   Clear
7:53 PM 79.0 °F - 66.0 °F 64% 30.00 in 10.0 mi East 5.8 mph - N/A   Clear
8:53 PM 78.1 °F - 66.9 °F 68% 30.01 in 10.0 mi East 4.6 mph - N/A   Clear
9:53 PM 77.0 °F - 68.0 °F 74% 30.01 in 10.0 mi ESE 3.5 mph - N/A   Clear
10:53 PM 75.9 °F - 68.0 °F 76% 30.02 in 10.0 mi SE 4.6 mph - N/A   Clear
11:53 PM 75.9 °F - 69.1 °F 79% 30.01 in 10.0 mi Calm Calm - N/A   Clear